Location: Unspecified
(41.1850°N, 73.2650°W)
Time: 02:56:38
(UTC+00:00)

Cosmos 2263 Rocket - Visible Passes

Search period start: 17 March 2026 00:00
Search period end: 27 March 2026 00:00
Orbit: 822 x 848 km, 71.0° (Epoch: 16 March)

Date Brightness Start Highest point End Pass type
(mag) Time Alt. Az. Time Alt. Az. Time Alt. Az.
17 Mar 4.7 02:55:36 10° N 02:56:34 15° N 02:56:34 15° N visible
18 Mar 4.5 02:38:28 10° N 02:39:53 17° N 02:39:53 17° N visible
19 Mar 4.2 02:21:21 10° N 02:23:13 19° N 02:23:13 19° N visible
20 Mar 4.0 02:04:13 10° N 02:06:35 21° NNE 02:06:35 21° NNE visible
20 Mar 5.0 03:47:59 10° NW 03:48:15 11° NW 03:48:15 11° NW visible
21 Mar 3.8 01:47:06 10° N 01:49:58 23° NNE 01:49:58 23° NNE visible
21 Mar 4.8 03:30:43 10° NW 03:31:38 15° NW 03:31:38 15° NW visible
22 Mar 3.6 01:30:01 10° N 01:33:22 24° NNE 01:33:22 24° NNE visible
22 Mar 4.5 03:13:27 10° NW 03:15:03 19° NW 03:15:03 19° NW visible
23 Mar 3.5 01:12:55 10° N 01:16:49 24° NE 01:16:49 24° NE visible
23 Mar 4.2 02:56:13 10° NNW 02:58:29 24° NW 02:58:29 24° NW visible
24 Mar 3.5 00:55:50 10° N 01:00:11 22° NE 01:00:18 22° NE visible
24 Mar 3.7 02:38:59 10° NNW 02:41:59 31° NW 02:41:59 31° NW visible
25 Mar 3.6 00:38:46 10° N 00:42:56 21° NE 00:43:49 20° ENE visible
25 Mar 3.3 02:21:45 10° NNW 02:25:30 41° NW 02:25:30 41° NW visible
26 Mar 3.7 00:21:42 10° N 00:25:39 19° NE 00:27:22 17° ENE visible
26 Mar 2.7 02:04:32 10° NNW 02:09:04 56° NW 02:09:04 56° NW visible
